Location: Aufkirchen
(47.9603°N, 11.3653°E)
Time: 07:41:34
(UTC+01:00)

Transit 4A - Pass Details

Date: 01 December 2020
Orbit: 864 x 981 km, 66.8° (Epoch: 16 January)

Event Time Altitude Azimuth Distance (km) Brightness Sun altitude
Rises 18:09:40 0° 312° (NW) 3,670 11.5 -17.1°
Reaches altitude 10° 18:13:35 10° 289° (WNW) 2,699 11.2 -17.7°
Maximum altitude 18:16:37 14° 259° (W) 2,394 11.2 -18.2°
Drops below altitude 10° 18:19:38 10° 230° (SW) 2,655 11.2 -18.7°
Sets 18:23:27 0° 206° (SSW) 3,567 11.5 -19.3°
